Flag for U.S.A. Weather past 2 weeks in Lexington-Fayette, Kentucky, U.S.A.

Now
77 °F

Scattered clouds.


Feels Like: 79 °F
Forecast: 65 / 73 °F
Wind: No wind

Location: Blue Grass Airport

Current Time: Jul 5, 2015 at 4:29:29 PM

Latest Report: Jul 5, 2015 at 3:54 PM


Visibility: 10 mi

Pressure: 30.06 "Hg

Humidity: 71%

Dew point: 67 °F

Location of Lexington-FayetteLocation

Historic Weather in Lexington-Fayette — Graph

°F

Lexington-Fayette temperature yesterday

Maximum temperature yesterday: 81 °F (at 4:54 PM)
Minimum temperature yesterday: 67 °F (at 12:54 AM)
Average temperature yesterday: 73 °F

Past Weeks' High & Low Weather Summary

 TemperatureHumidityPressure
High89 °F (Jun 23, 4:54 PM)97% (Jun 30, 3:54 AM)30.16 "Hg (Jun 30, 3:54 AM)
Low57 °F (Jun 28, 2:54 AM)39% (Jun 24, 4:54 PM)29.76 "Hg (Jun 27, 4:54 AM)
Average73 °F79%29.94 "Hg
* Reported Jun 20 2:54 PM — Jul 5 2:54 PM, Lexington-Fayette, Weather by CustomWeather, © 2015

Note: Actual official high and low records may vary slightly from our data, if they occured in-between our weather recording intervals... More about our weather records

Advertising

Lexington-Fayette weather history for previous 24 hours

 ConditionsComfort  
Time TempWeatherWind HumidityBarometerVisibility
2:54 PM
Sun, Jul 5
75 °FPartly sunny.7 mph76%30.06 "Hg10 mi
1:54 PM74 °FBroken clouds.6 mph79%30.06 "Hg10 mi
12:54 PM73 °FBroken clouds.No wind81%30.07 "Hg10 mi
11:54 AM72 °FLight rain. Mostly cloudy.No wind81%30.07 "Hg9 mi
10:54 AM71 °FPartly sunny.6 mph78%30.07 "Hg9 mi
9:54 AM71 °FPassing clouds.5 mph73%30.06 "Hg10 mi
8:54 AM70 °FMore clouds than sun.7 mph73%30.07 "Hg10 mi
7:54 AM70 °FOvercast.7 mph81%30.06 "Hg6 mi
6:54 AM69 °FFog.7 mph90%30.04 "Hg3 mi
5:54 AM69 °FFog.7 mph90%30.03 "Hg6 mi
4:54 AM69 °FFog.3 mph87%30.01 "Hg6 mi
3:54 AM70 °FClear.5 mph87%30.01 "Hg7 mi
2:54 AM71 °FClear.5 mph84%30.01 "Hg7 mi
1:54 AM72 °FClear.6 mph81%30.03 "Hg6 mi
12:54 AM71 °FClear.3 mph84%30.03 "Hg5 mi
11:54 PM
Sat, Jul 4
72 °FClear.3 mph81%30.03 "Hg5 mi
10:54 PM73 °FClear.6 mph79%30.02 "Hg6 mi
9:54 PM74 °FSunny.8 mph76%30.00 "Hg9 mi
8:54 PM75 °FSunny.5 mph71%29.99 "Hg9 mi
7:54 PM76 °FSunny.6 mph74%29.97 "Hg10 mi
6:54 PM78 °FSunny.5 mph69%29.96 "Hg10 mi
5:54 PM80 °FPassing clouds.5 mph62%29.97 "Hg10 mi
4:54 PM81 °FScattered clouds.6 mph62%29.98 "Hg10 mi
Weather by CustomWeather, © 2015

See weather overviewHow to use our weather pages